Weather History for KGEY - November, 2013

Change the Weather History Date:

Saturday, November 9, 2013

  Actual Average Record
Temperature  
Mean Temperature 40 °F 35 °F  
Max Temperature 50 °F 48 °F 60 °F (1987)
Min Temperature 30 °F 22 °F 9 °F (2003)
Degree Days  
Heating Degree Days 25 30  
Month to date heating degree days 241 252  
Since 1 July heating degree days 1050 1074  
Cooling Degree Days 0 0  
Month to date cooling degree days 0 0  
Year to date cooling degree days 1005 669  
Moisture  
Dew Point 25 °F    
Average Humidity 58    
Maximum Humidity 82    
Minimum Humidity 34    
Precipitation  
Precipitation 0.00 in 0.01 in 0.06 in (2012)
Month to date precipitation T 0.08  
Year to date precipitation 4.85 7.01  
Sea Level Pressure  
Sea Level Pressure 30.18 in    
Wind  
Wind Speed 3 mph (SE)    
Max Wind Speed 7 mph    
Max Gust Speed 8 mph    
Visibility 10 miles    
Events      
T = Trace of Precipitation, MM = Missing Value Source: NWS Daily Summary

Daily Weather History Graph

Daily Weather History Graph

Search for Another Location

Airport or City:

Trip Planner

Search our weather history database for the weather conditions in past years. The results will help you decide how hot, cold, wet, or windy it might be!

Date:

Astronomy

Nov. 09, 2013 Rise Set
Actual Time 7:01 AM MST 4:50 PM MST
Civil Twilight 6:29 AM MST 5:21 PM MST
Nautical Twilight 5:55 AM MST 5:56 PM MST
Astronomical Twilight 5:20 AM MST 6:30 PM MST
Moon 12:37 PM MST (11/9) 11:28 PM MST (11/9)
Length of Visible Light 10h 51m
Length of Day
9h 49m
Waxing Crescent, 45% of the Moon is Illuminated
Nov 9
Waxing Crescent
Nov 9
First Quarter
Nov 17
Full
Nov 25
Last Quarter
Dec 2
New

Hourly Weather History & Observations

Time (MST) Temp. Windchill Dew Point Humidity Pressure Visibility Wind Dir Wind Speed Gust Speed Precip Events Conditions
12:53 AM 37.0 °F 33.3 °F 26.1 °F 65% 30.04 in 10.0 mi ESE 4.6 mph - N/A   Mostly Cloudy
1:53 AM 35.1 °F - 26.1 °F 70% 30.05 in 10.0 mi Calm Calm - N/A   Overcast
2:53 AM 34.0 °F 31.0 °F 26.1 °F 73% 30.07 in 10.0 mi SE 3.5 mph - N/A   Overcast
3:53 AM 34.0 °F - 27.0 °F 75% 30.09 in 10.0 mi Calm Calm - N/A   Overcast
4:53 AM 35.1 °F 31.0 °F 26.1 °F 70% 30.12 in 10.0 mi SSE 4.6 mph - N/A   Overcast
5:53 AM 35.1 °F - 27.0 °F 72% 30.16 in 10.0 mi Calm Calm - N/A   Overcast
6:53 AM 34.0 °F 29.8 °F 28.0 °F 79% 30.17 in 10.0 mi ESE 4.6 mph - N/A   Overcast
7:53 AM 35.1 °F 31.0 °F 28.0 °F 76% 30.20 in 10.0 mi SE 4.6 mph - N/A   Overcast
8:53 AM 37.0 °F - 28.0 °F 70% 30.22 in 10.0 mi Calm Calm - N/A   Overcast
9:53 AM 37.9 °F 35.5 °F 28.9 °F 70% 30.22 in 10.0 mi SE 3.5 mph - N/A   Overcast
10:53 AM 41.0 °F 38.0 °F 28.0 °F 60% 30.24 in 10.0 mi SSE 4.6 mph - N/A   Overcast
11:53 AM 43.0 °F 41.3 °F 25.0 °F 49% 30.22 in 10.0 mi East 3.5 mph - N/A   Overcast
12:53 PM 46.0 °F 44.8 °F 21.9 °F 39% 30.20 in 10.0 mi NNE 3.5 mph - N/A   Overcast
1:53 PM 46.9 °F - 21.9 °F 37% 30.20 in 10.0 mi Calm Calm - N/A   Partly Cloudy
2:53 PM 48.9 °F - 21.9 °F 35% 30.18 in 10.0 mi Calm Calm - N/A   Clear
3:53 PM 48.9 °F - 23.0 °F 36% 30.18 in 10.0 mi South 3.5 mph - N/A   Clear
4:53 PM 46.0 °F 43.9 °F 24.1 °F 42% 30.20 in 10.0 mi WSW 4.6 mph - N/A   Mostly Cloudy
5:53 PM 44.1 °F - 24.1 °F 45% 30.21 in 10.0 mi Calm Calm - N/A   Scattered Clouds
6:53 PM 39.0 °F - 25.0 °F 57% 30.23 in 10.0 mi Calm Calm - N/A   Clear
7:53 PM 37.0 °F - 26.1 °F 65% 30.24 in 10.0 mi Calm Calm - N/A   Clear
8:53 PM 35.1 °F 30.1 °F 25.0 °F 67% 30.24 in 10.0 mi SE 5.8 mph - N/A   Clear
9:53 PM 33.1 °F 27.7 °F 25.0 °F 72% 30.24 in 10.0 mi SE 5.8 mph - N/A   Clear
10:53 PM 32.0 °F 27.5 °F 25.0 °F 75% 30.23 in 10.0 mi SE 4.6 mph - N/A   Clear
11:53 PM 30.9 °F - 24.1 °F 76% 30.24 in 10.0 mi Calm Calm - N/A   Unknown